Content
SEND FEEDBACK

Daily
Averages
Monthly
Summary
United States of America

NORTH WILKESBORO, NORTH CAROLINA


Home > North America > United States > North Carolina
Elevation: 1088 feet     Latitude: 36 10N     Longitude: 081 09W

WEATHER
 
SELECT A DAY
Number of Records: 364,035;   Date Range: 7/29/99 - 10/18/14
 
SHARE

PRINT THIS DATA

[ ← Previous Day ]
WEATHER ALMANAC - JANUARY 31, 2013
[ Next Day → ]
[ °C ]   °F
Weather ElementAverageHighLow
Temperature37.1 °F46.4 °F (12:35 am)32 °F (10:55 pm)
Dewpoint23.7 °F46.4 °F (12:35 am)19.4 °F (7:35 am)
Humidity59 %100 % (12:35 am)45 % (1:35 pm)
Barometer29.87 in30.01 in (7:35 pm)29.52 in (12:35 am)
Wind Speed11.4 mph21.9 mph (2:15 pm)
Wind Gust38 mph (1:35 pm)
Weather ElementAverage
Visibility10 mi
Wind DirectionWSW (247.3 °)

Weather ElementTotal
Precipitation0.02 in
Heating Degree Days25.8 (Base 65)
Averaged from 70 records on January 31, 2013
WEATHER CONDITIONS BREAKOUT
WIND DIRECTION BREAKOUT
WEATHER BY HOUR - JANUARY 31, 2013
[ °C ]   °F
Local TimeTemperatureDewpointHumidityBarometerVisibilityWind DirectionWind SpeedGust SpeedPrecipitationEventsConditions
12:35 AM46.4 °F46.4 °F100 %29.52 in10.0 miSSW (200°)4.6 mph0.01 inMostly Cloudy
12:55 AM46.4 °F46.4 °F100 %29.53 in10.0 miSW (220°)3.5 mph0.01 inOvercast
1:15 AM46.4 °F44.6 °F93 %29.55 in10.0 miWSW (250°)9.2 mphOvercast
1:35 AM46.4 °F39.2 °F76 %29.56 in10.0 miWest (260°)10.4 mph19.6 mphOvercast
1:55 AM44.6 °F35.6 °F71 %29.58 in10.0 miWest (280°)8.1 mph19.6 mphOvercast
2:15 AM44.6 °F33.8 °F66 %29.58 in10.0 miWest (270°)13.8 mph27.6 mphMostly Cloudy
2:35 AM42.8 °F32.0 °F66 %29.59 in10.0 miWSW (250°)10.4 mph23.0 mphClear
2:55 AM42.8 °F32.0 °F66 %29.60 in10.0 miWest (260°)13.8 mph19.6 mphScattered Clouds
3:15 AM42.8 °F32.0 °F66 %29.62 in10.0 miWSW (240°)9.2 mph19.6 mphClear
3:35 AM41.0 °F32.0 °F70 %29.64 in10.0 miWSW (250°)18.4 mph25.3 mphClear
3:55 AM41.0 °F30.2 °F65 %29.65 in10.0 miWSW (240°)13.8 mph26.5 mphClear
4:15 AM39.2 °F30.2 °F70 %29.67 in10.0 miWSW (240°)13.8 mph19.6 mphMostly Cloudy
4:35 AM39.2 °F30.2 °F70 %29.69 in10.0 miWest (270°)16.1 mph26.5 mphOvercast
4:55 AM37.4 °F28.4 °F70 %29.71 in10.0 miWest (260°)15.0 mph24.2 mphMostly Cloudy
5:15 AM35.6 °F28.4 °F75 %29.74 in10.0 miWest (270°)10.4 mph20.7 mphMostly Cloudy
5:35 AM35.6 °F24.8 °F65 %29.76 in10.0 miWNW (300°)9.2 mph20.7 mphScattered Clouds
5:55 AM35.6 °F23.0 °F60 %29.77 in10.0 miWNW (290°)10.4 mph23.0 mphOvercast
6:15 AM35.6 °F23.0 °F60 %29.78 in10.0 miWest (260°)11.5 mph23.0 mphOvercast
6:35 AM35.6 °F21.2 °F56 %29.79 in10.0 miWest (280°)9.2 mph21.9 mphMostly Cloudy
7:15 AM33.8 °F21.2 °F60 %29.82 in10.0 miWest (280°)9.2 mph19.6 mphScattered Clouds
7:35 AM33.8 °F19.4 °F56 %29.84 in10.0 miWest (280°)12.7 mph20.7 mphScattered Clouds
7:55 AM33.8 °F19.4 °F56 %29.85 in10.0 miWest (260°)5.8 mphClear
8:15 AM33.8 °F21.2 °F60 %29.87 in10.0 miWSW (240°)9.2 mphScattered Clouds
8:35 AM33.8 °F21.2 °F60 %29.88 in10.0 miWSW (250°)5.8 mphMostly Cloudy
8:55 AM35.6 °F23.0 °F60 %29.88 in10.0 miWSW (250°)10.4 mph18.4 mphOvercast
9:15 AM33.8 °F21.2 °F60 %29.90 in10.0 miWest (260°)13.8 mph23.0 mphOvercast
9:35 AM35.6 °F21.2 °F56 %29.91 in10.0 miWSW (250°)15.0 mph23.0 mphMostly Cloudy
9:55 AM35.6 °F21.2 °F56 %29.91 in10.0 miWest (270°)9.2 mph19.6 mphScattered Clouds
10:15 AM35.6 °F21.2 °F56 %29.92 in10.0 miWSW (250°)16.1 mph26.5 mphScattered Clouds
10:35 AM37.4 °F19.4 °F48 %29.92 in10.0 miWest (260°)13.8 mph24.2 mphScattered Clouds
10:55 AM37.4 °F19.4 °F48 %29.93 in10.0 miWest (270°)11.5 mph23.0 mphClear
11:15 AM37.4 °F21.2 °F52 %29.93 in10.0 miWSW (240°)17.3 mph26.5 mphMostly Cloudy
11:35 AM37.4 °F21.2 °F52 %29.93 in10.0 miWSW (250°)17.3 mph26.5 mphMostly Cloudy
11:55 AM37.4 °F23.0 °F56 %29.93 in10.0 miWSW (250°)13.8 mph24.2 mphMostly Cloudy
12:15 PM37.4 °F23.0 °F56 %29.93 in10.0 miWSW (240°)18.4 mph26.5 mphOvercast
12:35 PM37.4 °F21.2 °F52 %29.94 in10.0 miWSW (240°)12.7 mph20.7 mphOvercast
12:55 PM35.6 °F19.4 °F52 %29.93 in10.0 miWSW (250°)12.7 mph23.0 mphOvercast
1:15 PM37.4 °F19.4 °F48 %29.94 in10.0 miWest (280°)12.7 mph32.2 mphOvercast
1:35 PM39.2 °F19.4 °F45 %29.93 in10.0 miWest (270°)20.7 mph38.0 mphOvercast
1:55 PM37.4 °F19.4 °F48 %29.93 in10.0 miWest (260°)20.7 mph36.8 mphOvercast
2:15 PM39.2 °F21.2 °F49 %29.94 in10.0 miWest (270°)21.9 mph33.4 mphOvercast
2:35 PM37.4 °F21.2 °F52 %29.95 in10.0 miWest (280°)11.5 mph31.1 mphOvercast
2:55 PM39.2 °F21.2 °F49 %29.96 in10.0 miWest (260°)18.4 mph28.8 mphMostly Cloudy
3:15 PM37.4 °F19.4 °F48 %29.97 in10.0 miWest (270°)17.3 mph27.6 mphOvercast
3:35 PM37.4 °F19.4 °F48 %29.97 in10.0 miWSW (250°)16.1 mph27.6 mphMostly Cloudy
3:55 PM37.4 °F19.4 °F48 %29.98 in10.0 miWest (270°)18.4 mph26.5 mphMostly Cloudy
4:15 PM37.4 °F21.2 °F52 %29.99 in10.0 miWSW (240°)17.3 mph27.6 mphMostly Cloudy
4:35 PM37.4 °F19.4 °F48 %29.99 in10.0 miWSW (250°)12.7 mph28.8 mphMostly Cloudy
4:55 PM37.4 °F19.4 °F48 %29.99 in10.0 miWest (260°)9.2 mph17.3 mphScattered Clouds
5:15 PM37.4 °F19.4 °F48 %29.98 in10.0 miWSW (240°)6.9 mphClear
5:35 PM35.6 °F19.4 °F52 %29.98 in10.0 miSW (230°)8.1 mphClear
5:55 PM35.6 °F19.4 °F52 %29.98 in10.0 miSW (220°)8.1 mphClear
6:15 PM35.6 °F19.4 °F52 %29.99 in10.0 miWSW (240°)6.9 mphClear
6:35 PM33.8 °F19.4 °F56 %29.99 in10.0 miSW (220°)4.6 mphClear
6:55 PM33.8 °F19.4 °F56 %30.00 in10.0 miSW (220°)6.9 mphClear
7:15 PM33.8 °F19.4 °F56 %30.00 in10.0 miSW (220°)4.6 mphClear
7:35 PM33.8 °F19.4 °F56 %30.01 in10.0 miSW (220°)11.5 mph18.4 mphClear
7:55 PM33.8 °F21.2 °F60 %30.00 in10.0 miSW (220°)11.5 mph16.1 mphClear
8:15 PM33.8 °F21.2 °F60 %30.00 in10.0 miSW (220°)12.7 mph17.3 mphClear
8:35 PM33.8 °F21.2 °F60 %30.00 in10.0 miSW (230°)9.2 mphClear
8:55 PM35.6 °F21.2 °F56 %30.01 in10.0 miSW (230°)10.4 mphClear
9:15 PM35.6 °F21.2 °F56 %30.00 in10.0 miSW (230°)11.5 mph17.3 mphClear
9:35 PM35.6 °F21.2 °F56 %30.00 in10.0 miSW (230°)11.5 mph20.7 mphClear
9:55 PM35.6 °F19.4 °F52 %30.01 in10.0 miSSW (210°)9.2 mphClear
10:15 PM33.8 °F21.2 °F60 %30.01 in10.0 miSSW (210°)8.1 mphClear
10:35 PM33.8 °F21.2 °F60 %30.01 in10.0 miSSW (200°)6.9 mphClear
10:55 PM32.0 °F21.2 °F64 %30.00 in10.0 miSSW (200°)5.8 mphClear
11:15 PM32.0 °F21.2 °F64 %29.99 in10.0 miSW (220°)3.5 mphClear
11:35 PM33.8 °F19.4 °F56 %29.99 in10.0 miSW (220°)3.5 mphClear
11:55 PM33.8 °F19.4 °F56 %29.99 in10.0 miWSW (240°)3.5 mphClear
Hourly data recorded from KUKF, located miles away from North Wilkesboro, North Carolina







STORIES FROM OUR PARTNERS